N62112 KBDL-KBAS

Flight info

Callsign N62112
Flight time N/A
Altitude VFR/003
Route
Aircraft C172/L-VGD/C

Departure

Time 2026-04-30 02:55
Airport Bradley International Airport (KBDL)

Arrival

Time N/A
Airport KBAS
Time Latitude Longitude Altitude Speed Heading
2026-04-30 02:20 41.93431 -72.69929 176 ft 0 kts 179°
2026-04-30 02:41 41.93424 -72.69928 176 ft 6 kts 169°
2026-04-30 02:41 41.93398 -72.69868 177 ft 9 kts 93°
2026-04-30 02:42 41.93379 -72.69790 178 ft 10 kts 132°
2026-04-30 02:42 41.93383 -72.69717 178 ft 9 kts 50°
2026-04-30 02:42 41.93440 -72.69639 179 ft 12 kts 45°
2026-04-30 02:42 41.93499 -72.69564 179 ft 11 kts 44°
2026-04-30 02:43 41.93551 -72.69494 179 ft 10 kts 44°
2026-04-30 02:43 41.93597 -72.69433 180 ft 9 kts 44°
2026-04-30 02:43 41.93667 -72.69340 181 ft 22 kts 45°
2026-04-30 02:43 41.93789 -72.69182 180 ft 23 kts 41°
2026-04-30 02:44 41.93907 -72.69107 178 ft 19 kts 319°
2026-04-30 02:44 41.93998 -72.69231 177 ft 18 kts 314°
2026-04-30 02:44 41.94076 -72.69339 178 ft 15 kts 316°
2026-04-30 02:44 41.94130 -72.69393 177 ft 5 kts 345°
2026-04-30 02:45 41.94131 -72.69393 177 ft 0 kts 346°
2026-04-30 02:49 41.94153 -72.69398 177 ft 5 kts
2026-04-30 02:50 41.94168 -72.69391 177 ft 7 kts 21°
2026-04-30 02:50 41.94176 -72.69385 176 ft 0 kts 28°
2026-04-30 02:50 41.94215 -72.69268 176 ft 23 kts 129°
2026-04-30 02:51 41.94173 -72.69157 177 ft 3 kts 89°
2026-04-30 02:51 41.94174 -72.69156 177 ft 0 kts 71°
2026-04-30 02:53 41.94170 -72.69145 176 ft 5 kts 141°
2026-04-30 02:54 41.94061 -72.69065 174 ft 42 kts 143°
2026-04-30 02:54 41.93758 -72.68660 231 ft 74 kts 136°
2026-04-30 02:54 41.93370 -72.68101 376 ft 87 kts 138°
2026-04-30 02:54 41.92965 -72.67548 696 ft 76 kts 137°
2026-04-30 02:55 41.92602 -72.67054 948 ft 76 kts 138°
2026-04-30 02:55 41.92243 -72.66556 1222 ft 73 kts 136°
2026-04-30 02:55 41.91898 -72.66065 1490 ft 72 kts 136°
2026-04-30 02:55 41.91576 -72.65575 1779 ft 67 kts 135°